Date,TemperatureHighF,TemperatureAvgF,TemperatureLowF,DewpointHighF,DewpointAvgF,DewpointLowF,HumidityHigh,HumidityAvg,HumidityLow,PressureMaxIn,PressureMinIn,WindSpeedMaxMPH,WindSpeedAvgMPH,GustSpeedMaxMPH,PrecipitationSumIn
2013-1-1,73,71,69,-100,-100,-100,0,0,100,30.18,30.05,11,7,14,0.00
2013-1-2,76,71,68,-100,-100,-100,0,0,100,30.11,30.02,7,4,8,0.00
2013-1-3,75,73,70,-100,-100,-100,0,0,100,30.14,30.05,8,5,9,0.00
2013-1-4,76,74,72,-100,-100,-100,0,0,100,30.23,30.12,8,4,9,0.00
2013-1-5,78,74,70,-100,-100,-100,0,0,100,30.23,30.14,17,11,21,0.00
2013-1-6,78,76,72,-100,-100,-100,0,0,100,30.18,30.06,13,8,15,0.00
2013-1-7,78,76,73,-100,-100,-100,0,0,100,30.15,30.06,14,8,16,0.00
2013-1-8,79,76,73,-100,-100,-100,0,0,100,30.19,30.07,17,12,20,0.00
2013-1-9,79,78,77,-100,-100,-100,0,0,100,30.24,30.14,22,17,25,0.00
2013-1-10,78,77,76,-100,-100,-100,0,0,100,30.27,30.15,22,18,26,0.00
2013-1-11,77,76,74,-100,-100,-100,0,0,100,30.23,30.14,20,16,25,0.00
2013-1-12,77,76,74,-100,-100,-100,0,0,100,30.17,30.08,17,13,20,0.00
2013-1-13,77,76,74,-100,-100,-100,0,0,100,30.12,30.06,22,14,28,0.00
2013-1-14,76,75,73,-100,-100,-100,0,0,100,30.16,30.11,15,12,17,0.00
2013-1-15,77,75,72,-100,-100,-100,0,0,100,30.14,30.05,15,10,18,0.00
2013-1-16,77,75,70,-100,-100,-100,0,0,100,30.11,30.02,10,7,13,0.00
2013-1-17,76,74,69,-100,-100,-100,0,0,100,30.12,30.02,25,11,29,0.00
2013-1-18,68,63,59,-100,-100,-100,0,0,100,30.24,30.12,22,12,25,0.00
2013-1-19,73,69,66,-100,-100,-100,0,0,100,30.22,30.10,10,7,11,0.00
2013-1-20,74,71,68,-100,-100,-100,0,0,100,30.16,30.04,10,6,13,0.00
2013-1-21,74,72,71,-100,-100,-100,0,0,100,30.10,30.02,15,8,18,0.00
2013-1-22,73,70,66,-100,-100,-100,0,0,100,30.20,30.04,20,13,22,0.00
2013-1-23,73,68,64,-100,-100,-100,0,0,100,30.28,30.19,17,14,21,0.00
2013-1-24,73,67,62,-100,-100,-100,0,0,100,30.30,30.20,18,10,21,0.00
2013-1-25,73,68,64,-100,-100,-100,0,0,100,30.29,30.18,16,12,18,0.00
2013-1-26,75,69,63,-100,-100,-100,0,0,100,30.24,30.17,17,10,20,0.00
2013-1-27,74,72,68,-100,-100,-100,0,0,100,30.25,30.18,21,14,23,0.00
2013-1-28,75,74,71,-100,-100,-100,0,0,100,30.30,30.22,17,14,20,0.00
2013-1-29,76,75,74,-100,-100,-100,0,0,100,30.23,30.12,17,12,22,0.00
2013-1-30,76,75,74,-100,-100,-100,0,0,100,30.12,29.99,20,12,22,0.00
2013-1-31,72,69,67,-100,-100,-100,0,0,100,30.18,30.07,22,13,28,0.00
2013-2-1,73,65,57,-100,-100,-100,0,0,100,30.24,30.15,24,18,29,0.00
2013-2-2,71,66,60,-100,-100,-100,0,0,100,30.24,30.13,18,14,22,0.00
2013-2-3,69,66,62,-100,-100,-100,0,0,100,30.18,30.08,17,12,21,0.00
2013-2-4,70,66,59,-100,-100,-100,0,0,100,30.14,30.03,16,11,20,0.00
2013-2-5,72,69,63,-100,-100,-100,0,0,100,30.09,30.02,13,7,14,0.00
2013-2-6,75,71,68,-100,-100,-100,0,0,100,30.11,30.03,11,7,14,0.00
2013-2-8,74,73,72,-100,-100,-100,0,0,100,30.06,30.00,13,8,16,0.00
2013-2-9,76,72,65,-100,-100,-100,0,0,100,30.15,30.04,17,13,21,0.00
2013-2-10,75,74,71,-100,-100,-100,0,0,100,30.23,30.13,22,16,25,0.00
2013-2-11,76,74,73,-100,-100,-100,0,0,100,30.22,30.12,22,15,25,0.00
2013-2-12,76,75,74,-100,-100,-100,0,0,100,30.13,29.99,15,10,17,0.00
2013-2-13,77,76,75,-100,-100,-100,0,0,100,30.04,29.95,11,7,14,0.00
2013-2-14,78,73,65,-100,-100,-100,0,0,100,30.01,29.92,23,10,28,0.00
2013-2-15,72,68,65,-100,-100,-100,0,0,100,30.03,29.95,22,12,28,0.00
2013-2-16,69,68,65,-100,-100,-100,0,0,100,30.09,29.91,30,18,37,0.00
2013-2-17,61,56,50,-100,-100,-100,0,0,100,30.30,30.10,26,16,33,0.00
2013-2-18,68,60,51,-100,-100,-100,0,0,100,30.29,30.19,21,16,24,0.00
2013-2-19,71,68,64,-100,-100,-100,0,0,100,30.19,30.11,17,8,21,0.00
2013-2-20,73,69,66,-100,-100,-100,0,0,100,30.13,30.03,10,5,13,0.00
2013-2-21,76,73,70,-100,-100,-100,0,0,100,30.09,30.01,13,8,16,0.00
2013-2-22,76,74,72,-100,-100,-100,0,0,100,30.11,30.01,15,10,18,0.00
2013-2-23,77,75,74,-100,-100,-100,0,0,100,30.05,29.96,13,8,14,0.00
2013-2-24,81,76,74,-100,-100,-100,0,0,100,30.02,29.93,5,2,6,0.00
2013-2-25,78,77,76,-100,-100,-100,0,0,100,29.93,29.83,16,8,20,0.00
2013-2-26,78,78,77,-100,-100,-100,0,0,100,29.93,29.80,16,11,20,0.00
2013-2-27,78,75,71,-100,-100,-100,0,0,100,29.99,29.89,14,6,16,0.00
2013-2-28,71,70,66,-100,-100,-100,0,0,100,30.02,29.93,16,9,21,0.00
2013-3-1,69,66,62,-100,-100,-100,0,0,100,30.01,29.93,15,9,17,0.00
2013-3-2,65,61,58,-100,-100,-100,0,0,100,30.06,29.98,26,15,31,0.00
2013-3-3,63,58,53,-100,-100,-100,0,0,100,30.16,29.97,23,14,30,0.00
2013-3-4,62,57,49,-100,-100,-100,0,0,100,30.24,30.12,20,10,23,0.00
2013-3-5,70,65,60,-100,-100,-100,0,0,100,30.18,30.11,11,5,14,0.00
2013-3-6,70,67,64,-100,-100,-100,0,0,100,30.13,30.05,26,13,32,0.00
2013-3-7,63,59,52,-100,-100,-100,0,0,100,30.21,30.11,22,14,28,0.00
2013-3-8,69,63,55,-100,-100,-100,0,0,100,30.20,30.13,15,9,17,0.00
2013-3-9,71,67,62,-100,-100,-100,0,0,100,30.19,30.11,20,12,23,0.00
2013-3-10,72,68,64,-100,-100,-100,0,0,100,30.16,30.05,17,14,20,0.00
2013-3-11,72,71,68,-100,-100,-100,0,0,100,30.10,29.96,17,10,20,0.00
2013-3-12,73,72,69,-100,-100,-100,0,0,100,30.03,29.92,15,8,17,0.00
2013-3-13,75,68,61,-100,-100,-100,0,0,100,30.14,30.00,21,14,24,0.00
2013-3-14,70,64,58,-100,-100,-100,0,0,100,30.21,30.11,23,16,25,0.00
2013-3-15,71,63,55,-100,-100,-100,0,0,100,30.25,30.16,22,11,25,0.00
2013-3-16,71,67,61,-100,-100,-100,0,0,100,30.21,30.11,14,10,16,0.00
2013-3-17,73,71,68,-100,-100,-100,0,0,100,30.14,30.03,11,8,15,0.00
2013-3-18,74,73,72,-100,-100,-100,0,0,100,30.09,29.98,14,8,16,0.00
2013-3-19,74,71,68,-100,-100,-100,0,0,100,30.04,29.95,11,6,14,0.00
2013-3-20,72,70,67,-100,-100,-100,0,0,100,30.01,29.86,22,6,25,0.00
2013-3-21,72,70,67,-100,-100,-100,0,0,100,29.96,29.86,15,8,17,0.00
2013-3-22,76,74,69,-100,-100,-100,0,0,100,30.01,29.90,11,7,14,0.00
2013-3-23,81,77,75,-100,-100,-100,0,0,100,30.00,29.85,13,6,14,0.00
2013-3-24,79,78,77,-100,-100,-100,0,0,100,29.90,29.75,23,11,29,0.00
2013-3-25,78,75,72,-100,-100,-100,0,0,100,30.02,29.78,23,12,25,0.00
2013-3-26,70,63,59,-100,-100,-100,0,0,100,30.23,30.01,29,22,36,0.00
2013-3-27,63,57,50,-100,-100,-100,0,0,100,30.28,30.19,20,17,24,0.00
2013-3-28,69,62,54,-100,-100,-100,0,0,100,30.27,30.16,20,13,24,0.00
2013-3-29,70,70,68,-100,-100,-100,0,0,100,30.28,30.20,16,13,18,0.00
2013-3-30,71,68,65,-100,-100,-100,0,0,100,30.26,30.16,14,11,16,0.00
2013-3-31,74,72,67,-100,-100,-100,0,0,100,30.16,30.07,10,7,13,0.00
2013-4-1,75,74,72,-100,-100,-100,0,0,100,30.09,29.99,7,4,9,0.00
2013-4-2,74,73,70,-100,-100,-100,0,0,100,30.11,30.02,11,5,14,0.00
2013-4-3,78,76,73,-100,-100,-100,0,0,100,30.09,29.98,17,12,20,0.00
2013-4-4,79,77,77,-100,-100,-100,0,0,100,30.06,29.97,18,14,22,0.00
2013-4-5,78,72,68,-100,-100,-100,0,0,100,29.98,29.84,23,12,28,0.00
2013-4-6,72,68,63,-100,-100,-100,0,0,100,30.10,29.96,22,14,26,0.00
2013-4-7,76,74,71,-100,-100,-100,0,0,100,30.12,30.01,18,15,24,0.00
2013-4-8,78,77,76,-100,-100,-100,0,0,100,30.11,30.05,18,16,21,0.00
2013-4-9,78,76,72,-100,-100,-100,0,0,100,30.13,30.06,22,14,24,0.00
2013-4-10,80,78,75,-100,-100,-100,0,0,100,30.09,29.98,21,16,26,0.00
2013-4-11,80,79,78,-100,-100,-100,0,0,100,30.01,29.89,24,21,29,0.00
2013-4-12,81,80,79,-100,-100,-100,0,0,100,29.98,29.89,25,13,29,0.00
2013-4-13,81,80,79,-100,-100,-100,0,0,100,29.99,29.91,21,10,25,0.00
2013-4-14,82,81,80,-100,-100,-100,0,0,100,29.98,29.90,18,14,21,0.00
2013-4-15,83,82,80,-100,-100,-100,0,0,100,30.05,29.94,17,10,21,0.00
2013-4-16,83,81,78,-100,-100,-100,0,0,100,30.10,30.02,18,12,22,0.00
2013-4-17,82,80,78,-100,-100,-100,0,0,100,30.11,30.01,20,14,23,0.00
2013-4-18,82,80,75,-100,-100,-100,0,0,100,30.05,29.97,25,17,30,0.00
2013-4-19,82,81,81,-100,-100,-100,0,0,100,30.04,29.96,25,19,30,0.00
2013-4-20,82,81,78,-100,-100,-100,0,0,100,30.09,29.97,18,10,21,0.00
2013-4-21,82,78,75,-100,-100,-100,0,0,100,30.10,30.00,22,11,28,0.00
2013-4-22,82,77,73,-100,-100,-100,0,0,100,30.06,29.95,18,9,23,0.00
2013-4-23,82,77,72,-100,-100,-100,0,0,100,30.07,29.97,23,16,29,0.00
2013-4-24,80,77,73,-100,-100,-100,0,0,100,30.13,30.04,21,15,26,0.00
2013-4-25,80,78,75,-100,-100,-100,0,0,100,30.19,30.09,21,12,24,0.00
2013-4-26,79,76,73,-100,-100,-100,0,0,100,30.22,30.12,22,14,25,0.00
2013-4-27,79,76,74,-100,-100,-100,0,0,100,30.19,30.06,20,15,25,0.00
2013-4-28,79,77,74,-100,-100,-100,0,0,100,30.10,29.99,22,18,25,0.00
2013-4-29,79,78,77,-100,-100,-100,0,0,100,30.02,29.95,20,15,24,0.00
2013-4-30,81,79,78,-100,-100,-100,0,0,100,30.00,29.93,22,11,25,0.00
2013-5-1,81,78,75,-100,-100,-100,0,0,100,29.99,29.93,16,9,20,0.00
2013-5-2,79,75,71,-100,-100,-100,0,0,100,29.96,29.83,30,14,34,0.00
2013-5-3,77,74,73,-100,-100,-100,0,0,100,29.85,29.79,13,5,16,0.00
2013-5-4,78,77,76,-100,-100,-100,0,0,100,29.86,29.75,23,18,28,0.00
2013-5-5,77,75,73,-100,-100,-100,0,0,100,29.97,29.82,22,18,25,0.00
2013-5-6,76,73,69,-100,-100,-100,0,0,100,30.05,29.95,16,10,21,0.00
2013-5-7,76,75,72,-100,-100,-100,0,0,100,30.10,29.99,11,7,15,0.00
2013-5-8,77,75,73,-100,-100,-100,0,0,100,30.15,30.07,9,5,11,0.00
2013-5-9,82,78,72,-100,-100,-100,0,0,100,30.15,30.07,14,9,16,0.00
2013-5-10,83,81,77,-100,-100,-100,0,0,100,30.13,30.02,15,9,17,0.00
2013-5-11,82,81,81,-100,-100,-100,0,0,100,30.08,30.01,15,11,17,0.00
2013-5-12,82,81,81,-100,-100,-100,0,0,100,30.07,29.98,20,10,24,0.00
2013-5-13,81,80,79,-100,-100,-100,0,0,100,30.11,30.02,18,9,22,0.00
2013-5-14,81,78,74,-100,-100,-100,0,0,100,30.15,30.06,22,17,28,0.00
2013-5-15,79,76,73,-100,-100,-100,0,0,100,30.16,30.09,21,17,25,0.00
2013-5-16,79,78,77,-100,-100,-100,0,0,100,30.10,30.03,20,15,22,0.00
2013-5-17,81,80,76,-100,-100,-100,0,0,100,30.09,30.03,14,7,16,0.00
2013-5-18,82,81,80,-100,-100,-100,0,0,100,30.09,30.04,14,8,16,0.00
2013-5-19,82,82,81,-100,-100,-100,0,0,100,30.08,30.03,15,13,18,0.00
2013-5-20,81,78,73,-100,-100,-100,0,0,100,30.03,30.01,22,13,28,0.00
2013-5-21,81,79,78,-100,-100,-100,0,0,100,30.01,29.92,13,12,17,0.00
2013-5-22,83,83,82,-100,-100,-100,0,0,100,29.98,29.90,9,7,11,0.00
2013-5-23,83,82,82,-100,-100,-100,0,0,100,30.03,29.95,15,10,17,0.00
2013-5-24,84,82,80,-100,-100,-100,0,0,100,30.07,29.98,14,8,16,0.00
2013-5-25,85,82,79,-100,-100,-100,0,0,100,30.14,30.04,23,13,29,0.00
2013-5-26,82,80,76,-100,-100,-100,0,0,100,30.15,30.08,22,16,25,0.00
2013-5-27,82,79,76,-100,-100,-100,0,0,100,30.13,30.02,28,18,32,0.00
2013-5-28,80,79,76,-100,-100,-100,0,0,100,30.09,30.02,22,17,26,0.00
2013-5-29,80,77,75,-100,-100,-100,0,0,100,30.07,29.99,26,19,32,0.00
2013-5-30,80,78,76,-100,-100,-100,0,0,100,30.05,29.97,22,16,28,0.00
2013-5-31,82,79,76,-100,-100,-100,0,0,100,30.05,29.99,20,11,22,0.00
2013-6-1,82,80,77,-100,-100,-100,0,0,100,30.03,29.96,15,9,16,0.00
2013-6-2,82,80,77,-100,-100,-100,0,0,100,30.01,29.94,25,8,29,0.00
2013-6-3,82,80,75,-100,-100,-100,0,0,100,30.03,29.94,17,9,23,0.00
2013-6-4,82,80,76,-100,-100,-100,0,0,100,30.04,29.97,18,11,22,0.00
2013-6-5,83,82,81,-100,-100,-100,0,0,100,30.01,29.87,20,16,22,0.00
2013-6-6,82,80,77,-100,-100,-100,0,0,100,29.91,29.80,23,20,29,0.00
2013-6-7,83,81,78,-100,-100,-100,0,0,100,30.01,29.93,17,12,21,0.00
2013-6-8,85,83,80,-100,-100,-100,0,0,100,30.09,29.98,17,12,20,0.00
2013-6-9,84,83,81,-100,-100,-100,0,0,100,30.09,30.01,22,18,26,0.00
2013-6-10,85,84,83,-100,-100,-100,0,0,100,30.08,29.98,20,15,23,0.00
2013-6-11,85,83,78,-100,-100,-100,0,0,100,30.08,30.00,14,8,16,0.00
2013-6-12,84,82,77,-100,-100,-100,0,0,100,30.09,30.00,22,9,17,0.00
2013-6-13,84,82,80,-100,-100,-100,0,0,100,30.07,29.96,12,6,14,0.00
2013-6-14,84,83,83,-100,-100,-100,0,0,100,30.00,29.93,12,8,14,0.00
2013-6-15,85,84,83,-100,-100,-100,0,0,100,30.05,29.96,8,4,10,0.00
2013-6-16,87,84,83,-100,-100,-100,0,0,100,30.08,30.02,18,10,22,0.00
2013-6-17,86,85,84,-100,-100,-100,0,0,100,30.08,30.01,16,13,21,0.00
2013-6-18,86,86,85,-100,-100,-100,0,0,100,30.06,29.99,15,14,18,0.00
2013-6-19,86,85,84,-100,-100,-100,0,0,100,30.05,29.99,15,11,17,0.00
2013-6-20,86,85,85,-100,-100,-100,0,0,100,30.08,30.02,16,13,20,0.00
2013-6-22,86,85,84,-100,-100,-100,0,0,100,30.09,30.03,15,12,18,0.00
2013-6-23,84,83,81,-100,-100,-100,0,0,100,30.11,30.04,18,16,23,0.00
2013-6-24,83,83,82,-100,-100,-100,0,0,100,30.10,30.08,16,14,20,0.00
2013-6-25,83,82,82,-100,-100,-100,0,0,100,30.09,30.04,12,11,15,0.00
2013-6-26,85,84,81,-100,-100,-100,0,0,100,30.07,30.02,16,14,20,0.00
2013-6-27,85,84,82,-100,-100,-100,0,0,100,30.04,29.99,15,11,17,0.00
2013-6-28,85,84,83,-100,-100,-100,0,0,100,29.98,29.93,10,5,12,0.00
2013-6-29,85,85,84,-100,-100,-100,0,0,100,29.92,29.88,17,10,20,0.00
2013-6-30,85,84,83,-100,-100,-100,0,0,100,29.96,29.87,22,20,27,0.00
2013-7-1,85,84,82,-100,-100,-100,0,0,100,30.00,29.92,20,15,24,0.00
2013-7-2,84,83,82,-100,-100,-100,0,0,100,29.99,29.98,13,12,15,0.00
2013-7-8,85,84,84,-100,-100,-100,0,0,100,30.11,30.10,16,16,21,0.00
2013-7-9,82,81,81,-100,-100,-100,0,0,100,30.12,30.09,12,12,14,0.00
2013-7-11,85,84,79,-100,-100,-100,0,0,100,30.05,29.96,10,6,13,0.00
2013-7-12,85,83,82,-100,-100,-100,0,0,100,29.98,29.93,16,8,18,0.00
2013-7-13,84,82,78,-100,-100,-100,0,0,100,30.05,29.93,21,12,23,0.00
2013-7-14,84,82,78,-100,-100,-100,0,0,100,30.06,29.98,21,15,27,0.00
2013-7-16,81,80,79,-100,-100,-100,0,0,100,30.07,30.04,24,18,29,0.00
2013-7-18,78,77,76,-100,-100,-100,0,0,100,30.09,30.08,12,10,14,0.00
2013-7-19,84,80,78,-100,-100,-100,0,0,100,30.12,30.03,15,10,17,0.00
2013-7-20,85,83,81,-100,-100,-100,0,0,100,30.11,30.03,17,11,20,0.00
2013-7-21,85,84,83,-100,-100,-100,0,0,100,30.14,30.07,14,11,16,0.00
2013-7-22,86,84,83,-100,-100,-100,0,0,100,30.14,30.08,12,10,14,0.00
2013-7-23,85,84,84,-100,-100,-100,0,0,100,30.12,30.01,14,10,15,0.00
2013-7-24,84,84,84,-100,-100,-100,0,0,100,30.05,29.98,3,2,5,0.00
2013-7-25,85,85,85,-100,-100,-100,0,0,100,30.04,30.03,13,13,16,0.00
2013-7-26,84,84,84,-100,-100,-100,0,0,100,30.03,30.02,9,9,12,0.00
2013-7-27,85,85,85,-100,-100,-100,0,0,100,30.01,29.98,13,9,14,0.00
2013-7-28,85,84,83,-100,-100,-100,0,0,100,30.02,29.98,8,2,9,0.00
2013-7-29,88,86,85,-100,-100,-100,0,0,100,30.07,30.02,15,11,18,0.00
2013-7-30,85,85,85,-100,-100,-100,0,0,100,30.09,30.09,15,15,18,0.00
2013-7-31,87,87,87,-100,-100,-100,0,0,100,30.01,30.01,20,20,23,0.00
2013-8-1,86,85,85,-100,-100,-100,0,0,100,30.02,29.93,14,12,16,0.00
2013-8-2,86,84,82,-100,-100,-100,0,0,100,30.03,29.95,7,3,8,0.00
2013-8-3,86,85,83,-100,-100,-100,0,0,100,30.11,30.04,13,7,14,0.00
2013-8-4,87,86,84,-100,-100,-100,0,0,100,30.14,30.03,10,6,13,0.00
2013-8-5,86,86,85,-100,-100,-100,0,0,100,30.07,29.99,13,6,16,0.00
2013-8-6,86,84,81,-100,-100,-100,0,0,100,29.99,29.92,12,7,14,0.00
2013-8-7,86,85,84,-100,-100,-100,0,0,100,29.97,29.91,17,11,21,0.00
2013-8-8,86,86,84,-100,-100,-100,0,0,100,29.97,29.91,21,18,24,0.00
2013-8-9,83,83,83,-100,-100,-100,0,0,100,30.04,30.03,15,14,16,0.00
2013-8-10,87,85,82,-100,-100,-100,0,0,100,30.10,30.01,21,18,24,0.00
2013-8-12,87,86,86,-100,-100,-100,0,0,100,30.01,30.00,18,18,21,0.00
2013-8-19,87,52,85,-100,-100,-100,0,0,100,30.02,29.96,18,15,21,0.00
2013-8-21,85,84,82,-100,-100,-100,0,0,100,30.05,30.04,14,12,17,0.00
2013-8-23,86,84,82,-100,-100,-100,0,0,100,30.01,29.96,11,10,30,0.00
2013-8-24,86,86,85,-100,-100,-100,0,0,100,30.09,30.02,14,10,16,0.00
2013-8-26,82,82,82,-100,-100,-100,0,0,100,30.06,30.03,13,12,15,0.00
2013-8-27,81,80,80,-100,-100,-100,0,0,100,30.06,29.99,22,12,25,0.00
2013-9-12,85,85,84,-100,-100,-100,0,0,100,29.95,29.89,9,8,10,0.00
2013-9-13,84,84,84,-100,-100,-100,0,0,100,29.86,29.86,7,7,8,0.00
2013-9-14,85,84,84,-100,-100,-100,0,0,100,29.92,29.84,11,8,15,0.00
2013-9-15,79,79,79,-100,-100,-100,0,0,100,29.99,29.99,13,13,14,0.00
2013-9-16,82,81,80,-100,-100,-100,0,0,100,30.00,29.98,16,13,21,0.00
2013-9-17,80,80,80,-100,-100,-100,0,0,100,29.96,29.96,11,11,14,0.00
2013-9-19,79,79,79,-100,-100,-100,0,0,100,29.94,29.94,9,9,10,0.00
2013-9-20,84,84,83,-100,-100,-100,0,0,100,29.91,29.89,16,16,18,0.00
2013-9-22,85,84,84,-100,-100,-100,0,0,100,29.86,29.80,13,9,15,0.00
2013-9-23,85,84,84,-100,-100,-100,0,0,100,29.97,29.89,14,10,16,0.00
2013-10-7,84,84,83,-100,-100,-100,0,0,100,29.88,29.87,10,10,13,0.00
2013-10-8,84,84,84,-100,-100,-100,0,0,100,29.89,29.89,9,9,11,0.00
2013-10-9,82,82,81,-100,-100,-100,0,0,100,29.97,29.96,8,8,10,0.00
2013-10-13,83,82,80,-100,-100,-100,0,0,100,29.98,29.96,15,11,17,0.00
2013-10-31,81,80,77,-100,-100,-100,0,0,100,30.09,30.01,14,10,16,0.00
2013-11-1,79,79,79,-100,-100,-100,0,0,100,29.98,29.98,3,3,5,0.00
2013-11-2,81,80,79,-100,-100,-100,0,0,100,29.94,29.87,10,7,11,0.00
2013-11-3,80,77,72,-100,-100,-100,0,0,100,29.99,29.93,23,19,28,0.00
2013-11-4,75,74,72,-100,-100,-100,0,0,100,30.04,29.99,21,18,25,0.00
2013-11-5,80,77,75,-100,-100,-100,0,0,100,30.02,29.98,25,23,30,0.00
2013-11-6,80,79,78,-100,-100,-100,0,0,100,30.03,29.97,14,12,16,0.00
2013-11-7,76,75,74,-100,-100,-100,0,0,100,29.98,29.96,10,9,13,0.00
2013-11-13,75,74,73,-100,-100,-100,0,0,100,30.07,30.00,20,16,24,0.00
2013-11-14,75,74,72,-100,-100,-100,0,0,100,30.14,30.12,23,18,29,0.00
2013-11-15,78,76,75,-100,-100,-100,0,0,100,30.08,30.01,17,16,21,0.00
2013-11-19,78,77,76,-100,-100,-100,0,0,100,29.96,29.91,8,6,9,0.00
2013-11-20,80,77,75,-100,-100,-100,0,0,100,30.06,29.95,9,7,10,0.00
2013-11-21,81,78,76,-100,-100,-100,0,0,100,30.12,30.05,14,10,16,0.00
2013-11-22,78,76,74,-100,-100,-100,0,0,100,30.14,30.07,25,14,30,0.00
2013-11-23,80,78,75,-100,-100,-100,0,0,100,30.06,29.99,14,10,18,0.00
2013-11-24,81,77,75,-100,-100,-100,0,0,100,30.10,29.99,20,14,26,0.00
2013-11-25,77,76,72,-100,-100,-100,0,0,100,30.13,30.03,26,24,32,0.00
2013-11-26,80,78,75,-100,-100,-100,0,0,100,30.03,29.86,24,12,29,0.00
2013-11-27,78,74,66,-100,-100,-100,0,0,100,30.12,29.84,24,16,29,0.00
2013-11-28,71,64,52,-100,-100,-100,0,0,100,30.23,30.12,16,13,20,0.00
2013-11-29,76,70,63,-100,-100,-100,0,0,100,30.24,30.16,20,16,23,0.00
2013-11-30,78,70,64,-100,-100,-100,0,0,100,30.20,30.10,18,14,21,0.00
2013-12-1,75,71,67,-100,-100,-100,0,0,100,30.11,29.98,15,11,17,0.00
2013-12-2,72,70,67,-100,-100,-100,0,0,100,29.98,29.86,15,8,17,0.00
2013-12-3,76,73,70,-100,-100,-100,0,0,100,30.02,29.92,7,2,8,0.00
2013-12-4,78,76,74,-100,-100,-100,0,0,100,30.09,30.00,10,5,11,0.00
2013-12-5,78,76,73,-100,-100,-100,0,0,100,30.16,30.07,13,10,15,0.00
2013-12-6,79,78,76,-100,-100,-100,0,0,100,30.18,30.08,17,12,21,0.00
2013-12-7,79,76,72,-100,-100,-100,0,0,100,30.21,30.13,15,10,17,0.00
2013-12-8,80,78,75,-100,-100,-100,0,0,100,30.20,30.11,17,14,21,0.00
2013-12-9,80,79,76,-100,-100,-100,0,0,100,30.18,30.10,23,15,26,0.00
2013-12-10,80,78,76,-100,-100,-100,0,0,100,30.16,30.09,13,9,16,0.00
2013-12-11,80,78,76,-100,-100,-100,0,0,100,30.19,30.11,14,11,16,0.00
2013-12-12,80,76,70,-100,-100,-100,0,0,100,30.22,30.12,22,13,28,0.00
2013-12-13,78,73,68,-100,-100,-100,0,0,100,30.17,30.07,22,18,26,0.00
2013-12-14,79,77,76,-100,-100,-100,0,0,100,30.10,30.00,18,10,22,0.00
2013-12-15,78,78,75,-100,-100,-100,0,0,100,30.08,29.97,13,6,14,0.00
2013-12-16,75,72,68,-100,-100,-100,0,0,100,30.17,30.05,17,12,20,0.00
2013-12-17,76,71,65,-100,-100,-100,0,0,100,30.18,30.09,17,13,20,0.00
2013-12-18,75,70,65,-100,-100,-100,0,0,100,30.23,30.14,18,13,22,0.00
2013-12-19,75,70,64,-100,-100,-100,0,0,100,30.22,30.13,18,15,22,0.00
2013-12-20,77,75,72,-100,-100,-100,0,0,100,30.16,30.09,16,13,20,0.00
2013-12-21,78,77,75,-100,-100,-100,0,0,100,30.14,30.05,17,14,20,0.00
2013-12-22,79,78,77,-100,-100,-100,0,0,100,30.15,30.07,15,13,17,0.00
2013-12-23,79,78,77,-100,-100,-100,0,0,100,30.18,30.12,14,10,17,0.00
2013-12-24,77,75,67,-100,-100,-100,0,0,100,30.19,30.08,23,10,28,0.00
2013-12-25,77,71,67,-100,-100,-100,0,0,100,30.14,30.07,20,17,24,0.00
2013-12-26,77,73,71,-100,-100,-100,0,0,100,30.16,30.06,18,13,22,0.00
2013-12-27,78,74,71,-100,-100,-100,0,0,100,30.18,30.09,16,13,20,0.00
2013-12-28,78,76,74,-100,-100,-100,0,0,100,30.16,30.03,15,13,18,0.00
2013-12-29,78,76,75,-100,-100,-100,0,0,100,30.06,29.97,14,7,16,0.00
2013-12-30,76,75,73,-100,-100,-100,0,0,100,30.13,30.00,13,6,14,0.00
2013-12-31,76,73,69,-100,-100,-100,0,0,100,30.19,30.11,21,18,25,0.00
2014-1-1,79,76,74,-100,-100,-100,0,0,100,30.17,30.05,18,13,23,0.00
2014-1-2,78,77,76,-100,-100,-100,0,0,100,30.05,29.93,14,9,16,0.00